Time,TemperatureF,DewpointF,PressureIn,WindDirection,WindDirectionDegrees,WindSpeedMPH,WindSpeedGustMPH,Humidity,HourlyPrecipIn,Conditions,Clouds,dailyrainin,SoftwareType,DateUTC
2013-05-19 00:06:00,71.0,57.0,29.97,SSE,158,0.0,2.0,62,0.00,,,0.00,weatherlink.com 1.10,2013-05-19 04:06:00,
2013-05-19 00:21:00,71.0,59.0,29.97,SE,128,1.0,4.0,66,0.00,,,0.00,weatherlink.com 1.10,2013-05-19 04:21:00,
2013-05-19 00:36:00,71.0,59.0,29.98,East,100,0.0,5.0,65,0.00,,,0.00,weatherlink.com 1.10,2013-05-19 04:36:00,
2013-05-19 00:51:00,70.5,59.0,29.98,East,88,1.0,5.0,67,0.00,,,0.00,weatherlink.com 1.10,2013-05-19 04:51:00,
2013-05-19 01:06:00,69.7,59.0,29.97,SE,144,3.0,3.0,68,0.00,,,0.00,weatherlink.com 1.10,2013-05-19 05:06:00,
2013-05-19 01:21:00,69.0,57.0,29.96,East,84,2.0,5.0,66,0.00,,,0.00,weatherlink.com 1.10,2013-05-19 05:21:00,
2013-05-19 01:36:00,68.5,56.0,29.96,SE,129,0.0,5.0,64,0.00,,,0.00,weatherlink.com 1.10,2013-05-19 05:36:00,
2013-05-19 01:51:00,67.9,54.0,29.96,SW,224,1.0,3.0,62,0.00,,,0.00,weatherlink.com 1.10,2013-05-19 05:51:00,
2013-05-19 02:06:00,67.5,52.0,29.96,SSE,155,0.0,9.0,58,0.00,,,0.00,weatherlink.com 1.10,2013-05-19 06:06:00,
2013-05-19 02:21:00,66.8,50.0,29.96,SSW,212,0.0,4.0,56,0.00,,,0.00,weatherlink.com 1.10,2013-05-19 06:21:00,
2013-05-19 02:36:00,66.2,49.0,29.96,ESE,108,0.0,2.0,55,0.00,,,0.00,weatherlink.com 1.10,2013-05-19 06:36:00,
2013-05-19 02:51:00,65.5,48.0,29.96,SE,131,0.0,1.0,54,0.00,,,0.00,weatherlink.com 1.10,2013-05-19 06:51:00,
2013-05-19 03:06:00,64.7,48.0,29.96,SE,145,0.0,0.0,56,0.00,,,0.00,weatherlink.com 1.10,2013-05-19 07:06:00,
2013-05-19 03:21:00,63.4,50.0,29.96,SE,145,0.0,0.0,62,0.00,,,0.00,weatherlink.com 1.10,2013-05-19 07:21:00,
2013-05-19 03:36:00,62.3,51.0,29.96,SE,145,0.0,0.0,67,0.00,,,0.00,weatherlink.com 1.10,2013-05-19 07:36:00,
2013-05-19 03:51:00,61.5,52.0,29.96,SE,143,0.0,0.0,70,0.00,,,0.00,weatherlink.com 1.10,2013-05-19 07:51:00,
2013-05-19 04:07:00,60.8,51.0,29.96,SE,144,0.0,0.0,71,0.00,,,0.00,weatherlink.com 1.10,2013-05-19 08:07:00,
2013-05-19 04:22:00,60.5,51.0,29.96,SE,145,0.0,0.0,71,0.00,,,0.00,weatherlink.com 1.10,2013-05-19 08:22:00,
2013-05-19 04:37:00,60.0,50.0,29.97,SE,146,0.0,0.0,69,0.00,,,0.00,weatherlink.com 1.10,2013-05-19 08:37:00,
2013-05-19 04:52:00,59.9,49.0,29.97,SE,143,0.0,0.0,67,0.00,,,0.00,weatherlink.com 1.10,2013-05-19 08:52:00,
2013-05-19 05:07:00,59.5,48.0,29.97,SE,143,0.0,0.0,67,0.00,,,0.00,weatherlink.com 1.10,2013-05-19 09:07:00,
2013-05-19 05:22:00,59.1,48.0,29.97,SE,143,0.0,0.0,68,0.00,,,0.00,weatherlink.com 1.10,2013-05-19 09:22:00,
2013-05-19 05:37:00,58.8,49.0,29.97,SE,146,0.0,0.0,69,0.00,,,0.00,weatherlink.com 1.10,2013-05-19 09:37:00,
2013-05-19 05:52:00,58.4,48.0,29.96,SE,145,0.0,0.0,69,0.00,,,0.00,weatherlink.com 1.10,2013-05-19 09:52:00,
2013-05-19 06:07:00,58.2,48.0,29.97,ENE,65,0.0,1.0,68,0.00,,,0.00,weatherlink.com 1.10,2013-05-19 10:07:00,
2013-05-19 06:22:00,58.2,48.0,29.97,ENE,65,0.0,0.0,68,0.00,,,0.00,weatherlink.com 1.10,2013-05-19 10:22:00,
2013-05-19 06:37:00,58.2,48.0,29.98,ENE,65,0.0,0.0,68,0.00,,,0.00,weatherlink.com 1.10,2013-05-19 10:37:00,
2013-05-19 06:52:00,58.3,48.0,29.98,ENE,65,0.0,0.0,68,0.00,,,0.00,weatherlink.com 1.10,2013-05-19 10:52:00,
2013-05-19 07:07:00,58.8,49.0,29.98,ENE,65,0.0,0.0,69,0.00,,,0.00,weatherlink.com 1.10,2013-05-19 11:07:00,
2013-05-19 07:22:00,59.7,49.0,29.97,ESE,115,0.0,1.0,68,0.00,,,0.00,weatherlink.com 1.10,2013-05-19 11:22:00,
2013-05-19 07:37:00,60.1,49.0,29.96,ESE,122,0.0,1.0,67,0.00,,,0.00,weatherlink.com 1.10,2013-05-19 11:37:00,
2013-05-19 07:52:00,61.2,49.0,29.97,SE,134,0.0,2.0,65,0.00,,,0.00,weatherlink.com 1.10,2013-05-19 11:52:00,
2013-05-19 08:07:00,62.4,49.0,29.97,East,96,0.0,2.0,63,0.00,,,0.00,weatherlink.com 1.10,2013-05-19 12:07:00,
2013-05-19 08:22:00,64.8,51.0,29.98,ESE,121,1.0,2.0,61,0.00,,,0.00,weatherlink.com 1.10,2013-05-19 12:22:00,
2013-05-19 08:37:00,67.1,51.0,29.97,SSW,198,0.0,1.0,57,0.00,,,0.00,weatherlink.com 1.10,2013-05-19 12:37:00,
2013-05-19 08:52:00,68.7,51.0,29.97,SSE,147,0.0,1.0,54,0.00,,,0.00,weatherlink.com 1.10,2013-05-19 12:52:00,
2013-05-19 09:07:00,69.9,52.0,29.97,SE,131,0.0,1.0,54,0.00,,,0.00,weatherlink.com 1.10,2013-05-19 13:07:00,
2013-05-19 09:22:00,70.9,53.0,29.98,ESE,111,0.0,1.0,54,0.00,,,0.00,weatherlink.com 1.10,2013-05-19 13:22:00,
2013-05-19 09:37:00,72.8,54.0,29.97,SE,132,0.0,2.0,51,0.00,,,0.00,weatherlink.com 1.10,2013-05-19 13:37:00,
2013-05-19 09:52:00,73.8,54.0,29.96,East,94,1.0,2.0,50,0.00,,,0.00,weatherlink.com 1.10,2013-05-19 13:52:00,
2013-05-19 10:07:00,75.5,55.0,29.96,WSW,238,1.0,3.0,49,0.00,,,0.00,weatherlink.com 1.10,2013-05-19 14:07:00,
2013-05-19 10:22:00,76.4,56.0,29.96,SSE,167,0.0,2.0,49,0.00,,,0.00,weatherlink.com 1.10,2013-05-19 14:22:00,
2013-05-19 10:37:00,77.5,57.0,29.96,South,169,0.0,4.0,49,0.00,,,0.00,weatherlink.com 1.10,2013-05-19 14:37:00,
2013-05-19 10:52:00,78.4,58.0,29.97,South,179,2.0,3.0,50,0.00,,,0.00,weatherlink.com 1.10,2013-05-19 14:52:00,
2013-05-19 11:08:00,79.9,59.0,29.96,SE,129,0.0,3.0,49,0.00,,,0.00,weatherlink.com 1.10,2013-05-19 15:08:00,
2013-05-19 11:23:00,81.2,60.0,29.96,ESE,108,1.0,2.0,48,0.00,,,0.00,weatherlink.com 1.10,2013-05-19 15:23:00,
2013-05-19 11:38:00,80.9,60.0,29.95,WNW,287,2.0,3.0,49,0.00,,,0.00,weatherlink.com 1.10,2013-05-19 15:38:00,
2013-05-19 11:53:00,81.2,60.0,29.95,SSE,156,0.0,4.0,49,0.00,,,0.00,weatherlink.com 1.10,2013-05-19 15:53:00,
2013-05-19 12:08:00,82.8,61.0,29.95,NE,53,1.0,4.0,48,0.00,,,0.00,weatherlink.com 1.10,2013-05-19 16:08:00,
2013-05-19 12:23:00,82.2,61.0,29.94,ESE,105,1.0,5.0,49,0.00,,,0.00,weatherlink.com 1.10,2013-05-19 16:23:00,
2013-05-19 12:38:00,82.2,61.0,29.94,SSW,201,3.0,7.0,48,0.00,,,0.00,weatherlink.com 1.10,2013-05-19 16:38:00,
2013-05-19 12:53:00,83.1,61.0,29.93,South,191,5.0,7.0,48,0.00,,,0.00,weatherlink.com 1.10,2013-05-19 16:53:00,
2013-05-19 13:08:00,83.7,62.0,29.93,West,259,1.0,7.0,48,0.00,,,0.00,weatherlink.com 1.10,2013-05-19 17:08:00,
2013-05-19 13:23:00,83.4,63.0,29.91,East,89,1.0,8.0,50,0.00,,,0.00,weatherlink.com 1.10,2013-05-19 17:23:00,
2013-05-19 13:38:00,84.3,62.0,29.90,WSW,242,2.0,6.0,48,0.00,,,0.00,weatherlink.com 1.10,2013-05-19 17:38:00,
2013-05-19 13:53:00,85.5,64.0,29.90,ESE,110,2.0,4.0,48,0.00,,,0.00,weatherlink.com 1.10,2013-05-19 17:53:00,
2013-05-19 14:08:00,85.4,63.0,29.89,ENE,61,6.0,7.0,48,0.00,,,0.00,weatherlink.com 1.10,2013-05-19 18:08:00,
2013-05-19 14:24:00,86.3,65.0,29.89,SE,146,1.0,8.0,49,0.00,,,0.00,weatherlink.com 1.10,2013-05-19 18:24:00,
2013-05-19 14:38:00,85.6,63.0,29.88,SSE,155,2.0,12.0,47,0.00,,,0.00,weatherlink.com 1.10,2013-05-19 18:38:00,
2013-05-19 14:53:00,85.0,63.0,29.88,SW,224,4.0,9.0,48,0.00,,,0.00,weatherlink.com 1.10,2013-05-19 18:53:00,
2013-05-19 15:08:00,85.8,62.0,29.87,SSE,162,7.0,8.0,45,0.00,,,0.00,weatherlink.com 1.10,2013-05-19 19:08:00,
2013-05-19 15:23:00,86.4,64.0,29.85,SE,124,1.0,11.0,47,0.00,,,0.00,weatherlink.com 1.10,2013-05-19 19:23:00,
2013-05-19 15:38:00,87.2,63.0,29.84,SE,127,1.0,10.0,45,0.00,,,0.00,weatherlink.com 1.10,2013-05-19 19:38:00,
2013-05-19 15:53:00,87.0,65.0,29.84,East,94,4.0,12.0,48,0.00,,,0.00,weatherlink.com 1.10,2013-05-19 19:53:00,
2013-05-19 16:08:00,87.2,64.0,29.83,SSE,150,1.0,8.0,46,0.00,,,0.00,weatherlink.com 1.10,2013-05-19 20:08:00,
2013-05-19 16:23:00,87.5,64.0,29.82,South,170,5.0,9.0,45,0.00,,,0.00,weatherlink.com 1.10,2013-05-19 20:23:00,
2013-05-19 16:38:00,88.2,64.0,29.83,SSE,165,1.0,5.0,44,0.00,,,0.00,weatherlink.com 1.10,2013-05-19 20:38:00,
2013-05-19 16:53:00,88.4,63.0,29.84,South,172,1.0,7.0,43,0.00,,,0.00,weatherlink.com 1.10,2013-05-19 20:53:00,
2013-05-19 17:09:00,87.1,63.0,29.83,SSE,150,3.0,8.0,44,0.00,,,0.00,weatherlink.com 1.10,2013-05-19 21:09:00,
2013-05-19 17:24:00,86.8,63.0,29.82,SSE,150,3.0,10.0,45,0.00,,,0.00,weatherlink.com 1.10,2013-05-19 21:24:00,
2013-05-19 17:39:00,87.3,64.0,29.82,SE,135,3.0,8.0,46,0.00,,,0.00,weatherlink.com 1.10,2013-05-19 21:39:00,
2013-05-19 17:54:00,88.5,63.0,29.82,SSW,197,4.0,8.0,43,0.00,,,0.00,weatherlink.com 1.10,2013-05-19 21:54:00,
2013-05-19 18:09:00,88.4,63.0,29.83,South,173,2.0,7.0,43,0.00,,,0.00,weatherlink.com 1.10,2013-05-19 22:09:00,
2013-05-19 18:24:00,88.4,63.0,29.82,SSW,203,1.0,7.0,43,0.00,,,0.00,weatherlink.com 1.10,2013-05-19 22:24:00,
2013-05-19 18:39:00,88.6,63.0,29.82,SE,142,7.0,7.0,43,0.00,,,0.00,weatherlink.com 1.10,2013-05-19 22:39:00,
2013-05-19 18:54:00,87.6,63.0,29.81,SE,137,3.0,8.0,44,0.00,,,0.00,weatherlink.com 1.10,2013-05-19 22:54:00,
2013-05-19 19:09:00,87.3,63.0,29.81,SSE,168,1.0,6.0,44,0.00,,,0.00,weatherlink.com 1.10,2013-05-19 23:09:00,
2013-05-19 19:24:00,86.9,62.0,29.80,East,97,3.0,8.0,44,0.00,,,0.00,weatherlink.com 1.10,2013-05-19 23:24:00,
2013-05-19 19:39:00,86.9,62.0,29.80,ESE,109,2.0,9.0,44,0.00,,,0.00,weatherlink.com 1.10,2013-05-19 23:39:00,
2013-05-19 19:54:00,86.2,63.0,29.80,East,101,0.0,6.0,46,0.00,,,0.00,weatherlink.com 1.10,2013-05-19 23:54:00,
2013-05-19 20:09:00,85.5,63.0,29.79,ESE,120,0.0,5.0,47,0.00,,,0.00,weatherlink.com 1.10,2013-05-20 00:09:00,
2013-05-19 20:24:00,84.8,63.0,29.79,SSE,165,0.0,4.0,48,0.00,,,0.00,weatherlink.com 1.10,2013-05-20 00:24:00,
2013-05-19 20:39:00,83.6,62.0,29.80,SSW,205,5.0,5.0,49,0.00,,,0.00,weatherlink.com 1.10,2013-05-20 00:39:00,
2013-05-19 20:54:00,82.4,63.0,29.80,South,174,0.0,1.0,52,0.00,,,0.00,weatherlink.com 1.10,2013-05-20 00:54:00,
2013-05-19 21:09:00,81.2,62.0,29.81,SSE,165,1.0,2.0,53,0.00,,,0.00,weatherlink.com 1.10,2013-05-20 01:09:00,
2013-05-19 21:24:00,80.3,63.0,29.80,SE,135,0.0,1.0,55,0.00,,,0.00,weatherlink.com 1.10,2013-05-20 01:24:00,
2013-05-19 21:39:00,79.7,63.0,29.81,ESE,105,0.0,4.0,56,0.00,,,0.00,weatherlink.com 1.10,2013-05-20 01:39:00,
2013-05-19 21:54:00,79.1,62.0,29.82,SSE,163,0.0,2.0,57,0.00,,,0.00,weatherlink.com 1.10,2013-05-20 01:54:00,
2013-05-19 22:09:00,78.4,63.0,29.82,South,176,0.0,1.0,59,0.00,,,0.00,weatherlink.com 1.10,2013-05-20 02:09:00,
2013-05-19 22:24:00,77.7,63.0,29.82,West,263,0.0,0.0,60,0.00,,,0.00,weatherlink.com 1.10,2013-05-20 02:24:00,
2013-05-19 22:39:00,77.0,63.0,29.83,WSW,252,0.0,0.0,62,0.00,,,0.00,weatherlink.com 1.10,2013-05-20 02:39:00,
2013-05-19 22:54:00,75.8,63.0,29.83,WSW,253,0.0,0.0,64,0.00,,,0.00,weatherlink.com 1.10,2013-05-20 02:54:00,
2013-05-19 23:09:00,74.6,63.0,29.83,WSW,252,0.0,0.0,67,0.00,,,0.00,weatherlink.com 1.10,2013-05-20 03:09:00,
2013-05-19 23:24:00,74.0,63.0,29.83,WSW,253,0.0,0.0,68,0.00,,,0.00,weatherlink.com 1.10,2013-05-20 03:24:00,
2013-05-19 23:39:00,73.1,63.0,29.83,WSW,253,0.0,0.0,71,0.00,,,0.00,weatherlink.com 1.10,2013-05-20 03:39:00,
2013-05-19 23:54:00,73.1,63.0,29.83,SSE,162,0.0,0.0,71,0.00,,,0.00,weatherlink.com 1.10,2013-05-20 03:54:00,